• Processing (Info)

  • MPEC 2014-L33 : 2014 LU14

    The following Minor Planet Electronic Circular may be linked-to from your own Web pages, but must not otherwise be redistributed electronically.

    A form allowing access to any MPEC is at the bottom of this page.


    Read MPEC 2014-L32 Read MPEC 2014-L34


    M.P.E.C. 2014-L33                                Issued 2014 June 6, 14:09 UT
    
         The Minor Planet Electronic Circulars contain information on unusual
             minor planets and routine data on comets.  They are published
       on behalf of Commission 20 of the International Astronomical Union by the
              Minor Planet Center, Smithsonian Astrophysical Observatory,
                              Cambridge, MA 02138, U.S.A.
    
                 Prepared using the Tamkin Foundation Computer Network
    
                                  MPC@CFA.HARVARD.EDU
                URL http://www.minorplanetcenter.net/    ISSN 1523-6714
    
                                       2014 LU14
    
    Observations:
         K14L14U*.C2014 06 02.17939 20 55 54.82 -11 49 05.6          21.6 RtEL033950
         K14L14U .C2014 06 02.18133 20 55 54.71 -11 49 03.6          21.7 RtEL033950
         K14L14U .C2014 06 02.18326 20 55 54.58 -11 49 01.4          21.7 RtEL033950
         K14L14U .C2014 06 02.18520 20 55 54.49 -11 48 59.5          21.6 RtEL033950
         K14L14U .C2014 06 02.18713 20 55 54.33 -11 48 57.5          21.5 RtEL033950
         K14L14U .C2014 06 02.18906 20 55 54.29 -11 48 55.4          21.8 RtEL033950
         K14L14U .C2014 06 03.16130 20 55 02.15 -11 32 22.4          21.8  tEL033950
         K14L14U .C2014 06 03.16324 20 55 02.06 -11 32 20.4          21.7  tEL033950
         K14L14U .C2014 06 03.16517 20 55 01.95 -11 32 18.5          21.7  tEL033950
         K14L14U .C2014 06 03.16710 20 55 01.86 -11 32 16.4          21.8  tEL033950
         K14L14U .C2014 06 03.16903 20 55 01.72 -11 32 14.5          21.8  tEL033950
         K14L14U .C2014 06 03.17096 20 55 01.62 -11 32 12.8          21.8  tEL033950
         K14L14U .C2014 06 03.17289 20 55 01.50 -11 32 10.8          21.8  tEL033950
         K14L14U .C2014 06 04.21389 20 54 01.77 -11 14 28.4          22.0  tEL033950
         K14L14U .C2014 06 04.21582 20 54 01.66 -11 14 26.0          22.0  tEL033950
         K14L14U .C2014 06 04.22189 20 54 01.26 -11 14 19.7          21.7  tEL033950
         K14L14U .C2014 06 04.22382 20 54 01.17 -11 14 17.7          21.5  tEL033950
         K14L14U .C2014 06 06.17217 20 51 59.67 -10 41 10.5          21.3  tEL033950
         K14L14U .C2014 06 06.17410 20 51 59.51 -10 41 08.2          21.4  tEL033950
         K14L14U .C2014 06 06.17603 20 51 59.38 -10 41 06.5          21.2  tEL033950
         K14L14U .C2014 06 06.17796 20 51 59.25 -10 41 04.6          21.4  tEL033950
         K14L14U .C2014 06 06.17989 20 51 59.10 -10 41 02.3          21.4  tEL033950
         K14L14U .C2014 06 06.18375 20 51 58.85 -10 40 59.0          21.5  tEL033950
         K14L14U .C2014 06 06.18568 20 51 58.72 -10 40 56.6          21.3  tEL033950
    
    Observer details:
    950 La Palma.  Observers V. Tudor, O. Vaduvescu.  Measurers L. Hudin, V. Tudor.
        2.5-m f/3.3 reflector + CCD.
    
    Orbital elements:
    2014 LU14                                                Earth MOID = 0.1947 AU
    Epoch 2014 May 23.0 TT = JDT 2456800.5                  MPC
    M 101.94910              (2000.0)            P               Q
    n   0.67556904     Peri.  219.81516     -0.63178351     -0.65022948
    a   1.2863413      Node   273.95261     +0.77409035     -0.50086446
    e   0.4482504      Incl.   25.02206     +0.04041937     -0.57125862
    P   1.46           H   18.9           G   0.15           U   8
    Residuals in seconds of arc
    140602 950  0.3+  0.1-    140603 950  0.1+  0.2+    140604 950  0.2+  0.3+
    140602 950  0.2+  0.0     140603 950  0.5+  0.3+    140606 950  0.4+  0.1+
    140602 950  0.1-  0.2+    140603 950  0.1+  0.3+    140606 950  0.0   0.4+
    140602 950  0.1+  0.1+    140603 950  0.3+  0.0     140606 950  0.0   0.1+
    140602 950  0.6-  0.2+    140603 950  0.2+  0.1+    140606 950  0.1+  0.1+
    140602 950  0.4+  0.3+    140604 950  0.1-  0.3-    140606 950  0.1-  0.4+
    140603 950  0.3-  0.2+    140604 950  0.1+  0.1+    140606 950  0.1+  0.2-
    140603 950  0.1+  0.3+    140604 950  0.2-  0.2+    140606 950  0.2+  0.2+
    
    Ephemeris:
    2014 LU14                a,e,i = 1.29, 0.45, 25                  q = 0.7097
    Date    TT    R. A. (2000) Decl.     Delta      r     Elong.  Phase     V
    2014 05 07    21 00 39.6 -19 10 55   1.0745  1.5255    94.1    41.3    21.6
    ...
    2014 05 22    21 02 06.9 -14 58 58   0.9765  1.5991   107.0    37.2    21.4
    ...
    2014 05 30    20 58 22.6 -12 43 08   0.9248  1.6345   114.9    34.2    21.2
    ...
    2014 06 05    20 53 14.3 -11 01 00   0.8884  1.6594   121.2    31.5    21.1
    2014 06 06    20 52 10.8 -10 44 01   0.8827  1.6634   122.3    31.0    21.1
    2014 06 07    20 51 03.8 -10 27 02   0.8770  1.6673   123.4    30.5    21.0
    ...
    2014 06 13    20 43 08.2 -08 45 46   0.8457  1.6902   130.3    27.3    20.9
    ...
    2014 06 21    20 29 22.1 -06 34 27   0.8124  1.7185   139.8    22.5    20.7
    ...
    2014 07 06    19 55 42.2 -02 57 31   0.7867  1.7645   156.0    13.6    20.4
    
    A. U. Tomatic                (C) Copyright 2014 MPC           M.P.E.C. 2014-L33
    

    Read MPEC 2014-L32 Read MPEC 2014-L34


    MPEC number:

    Enter an MPEC number in one of the following forms:

    • 1997-B01 (the full form)
    • J97B01 (the packed version of the full form)
    • B01 (the abbreviated form)